Zurück zum Katalog

YINHE 2-03

AktivKommunikationLEO
NORAD 51950·PAYLOAD·🇨🇳 China
Dieser Satellitenname wurde noch nicht durch offizielle Quellen bestätigt.

Gestartet Mar 5, 2022 von Xichang Satellite Launch Center

Loading…

Nächste Überflüge (nächste 24 Stunden)

TLE

AktuellSource: Space-Track

Epoche: Sep 14, 2026, 15:22 UTC

1 51950U 22023E   26257.64091727 -.00000078  00000-0  19304-4 0  9994
2 51950  63.4591  79.7359 0167447 348.5447  11.1793 13.56298532234166

Verfolge YINHE 2-03 in Echtzeit mit AllMySat

Download on the App Store